Orbital Elements at Epoch 2459200.5 (2020-Dec-17.0) TDB
Reference: JPL 19 (heliocentric ecliptic J2000)
Element | Value | Uncertainty (1-sigma) | Units |
e | .3228789545793291 | 5.0182e-08 | |
a | 2.550547502941396 | 1.3733e-08 | au |
q | 1.72702939158676 | 1.3088e-07 | au |
i | 8.398247639865895 | 4.4302e-06 | deg |
node | 44.1055759888417 | 4.8391e-05 | deg |
peri | 327.7895228277793 | 5.0843e-05 | deg |
M | 160.5713275383869 | 2.0488e-05 | deg |
tp | 2458536.888277931457 (2019-Feb-22.38827793) | 8.034e-05 | TDB |
period | 1487.813693808833 4.07 | 1.2016e-05 3.29e-08 | d yr |
n | .2419657793835683 | 1.9542e-09 | deg/d |
Q | 3.374065614296033 | 1.8167e-08 | au |
|
| | Orbit Determination Parameters
Additional Information
|